This is the latest recevied weather packets stored in our database for station/object K7KAR-2. If no packets are shown the sender has not sent any weather packets the latest 10 day(s).
| Time | Temp. | Humidity | Pressure | Rain* | Wind** | Luminosity | Snow |
|---|---|---|---|---|---|---|---|
| 1787804197 | 22.78° C | 35% | 1018.6 hPa | 0 mm | - | 0 W/m² | - |
| 1787803892 | 23.89° C | 34% | 1018.5 hPa | 0 mm | - | 0 W/m² | - |
| 1787803586 | 23.33° C | 34% | 1018.5 hPa | 0 mm | - | 0 W/m² | - |
| 1787803285 | 22.78° C | 34% | 1018.4 hPa | 0 mm | - | 0 W/m² | - |
| 1787802980 | 22.78° C | 35% | 1018.4 hPa | 0 mm | - | 0 W/m² | - |
| 1787802679 | 22.78° C | 35% | 1018.6 hPa | 0 mm | - | 0 W/m² | - |
| 1787802378 | 21.11° C | 37% | 1018.4 hPa | 0 mm | - | 0 W/m² | - |
| 1787802073 | 22.22° C | 36% | 1018.4 hPa | 0 mm | - | 0 W/m² | - |
| 1787801769 | 23.33° C | 33% | 1018.6 hPa | 0 mm | - | 0 W/m² | - |
| 1787801464 | 22.78° C | 34% | 1018.5 hPa | 0 mm | - | 0 W/m² | - |
| 1787801157 | 22.78° C | 35% | 1018.4 hPa | 0 mm | - | 0 W/m² | - |
| 1787800856 | 23.33° C | 34% | 1018.5 hPa | 0 mm | - | 0 W/m² | - |
| 1787800551 | 24.44° C | 33% | 1018.5 hPa | 0 mm | - | 0 W/m² | - |
| 1787800246 | 26.11° C | 30% | 1018.4 hPa | 0 mm | - | 0 W/m² | - |
| 1787799940 | 26.11° C | 29% | 1018.1 hPa | 0 mm | - | 0 W/m² | - |
| 1787799640 | 26.67° C | 29% | 1018.4 hPa | 0 mm | - | 0 W/m² | - |
| 1787799337 | 26.67° C | 28% | 1018.2 hPa | 0 mm | - | 0 W/m² | - |
| 1787799036 | 26.67° C | 29% | 1018.1 hPa | 0 mm | - | 0 W/m² | - |
| 1787798735 | 26.67° C | 28% | 1018.1 hPa | 0 mm | - | 0 W/m² | - |
| 1787798431 | 27.78° C | 27% | 1018 hPa | 0 mm | - | 0 W/m² | - |
| 1787798126 | 27.78° C | 27% | 1017.9 hPa | 0 mm | - | 0 W/m² | - |
| 1787797824 | 27.78° C | 27% | 1018 hPa | 0 mm | - | 0 W/m² | - |
| 1787797520 | 27.78° C | 27% | 1017.7 hPa | 0 mm | - | 0 W/m² | - |
| 1787797215 | 27.78° C | 27% | 1017.7 hPa | 0 mm | - | 0 W/m² | - |
| 1787796909 | 27.78° C | 27% | 1017.7 hPa | 0 mm | - | 1 W/m² | - |
* Rain latest hour (hover to see other rain measurements)
** Current wind speed in m/s (hover to see current wind gust speed)